EW3359 Weather Reports


Display with metric or nautical units.
time (UTC)temp
F
wind
direction
speed
MPH
gust
MPH
rain 1hr
in
rain 24hr
in
rain mn
in
humidity
%
barometer
mb
20260510054529 58 268 0.0 0.0 0.00 0.00 0.00 59 1008.6
20260510053027 59 268 0.0 0.0 0.00 0.00 0.00 56 1008.5
20260510051527 59 268 0.0 1.0 0.00 0.00 0.00 56 1008.6
20260510050026 59 268 0.0 0.0 0.00 0.00 0.00 51 1008.6
20260510044525 58 268 0.0 0.0 0.00 0.00 0.00 56 1008.7
20260510043021 58 268 0.0 0.0 0.00 0.00 0.00 55 1008.6
20260510041522 60 268 0.0 1.0 0.00 0.00 0.00 47 1008.8
20260510040016 61 268 1.0 3.0 0.00 0.00 0.00 41 1008.6
20260510034513 61 360 0.0 0.0 0.00 0.00 0.00 42 1008.7
20260510033010 61 5 0.0 4.0 0.00 0.00 0.00 41 1008.7
20260510031511 61 350 0.0 2.0 0.00 0.00 0.00 40 1008.7
20260510030008 62 69 0.0 0.0 0.00 0.00 0.00 40 1008.9
20260510024507 62 355 0.0 3.0 0.00 0.00 0.00 40 1008.8
20260510023005 62 311 0.0 6.0 0.00 0.00 0.00 40 1009.0
20260510021652 62 336 0.0 5.0 0.00 0.00 0.00 40 1009.1
20260510020003 62 347 0.0 4.0 0.00 0.00 0.00 40 1009.2
20260510014507 62 65 0.0 6.0 0.00 0.00 0.00 40 1009.4
20260510013005 63 65 0.0 10.0 0.00 0.00 0.00 40 1009.3
20260510011502 63 355 1.0 8.0 0.00 0.00 0.00 40 1009.1
20260510010003 63 360 0.0 8.0 0.00 0.00 0.00 41 1009.2
20260510004558 63 101 1.0 4.0 0.00 0.00 0.00 39 1009.2
20260510003105 64 57 0.0 3.0 0.00 0.00 0.00 39 1009.2
20260510001601 64 65 0.0 4.0 0.00 0.00 0.00 39 1009.2
20260510000054 65 107 0.0 8.0 0.00 0.00 0.00 37 1009.2
20260509234553 65 149 0.0 7.0 0.00 0.00 0.00 38 1009.5
20260509233052 65 300 0.0 6.0 0.00 0.00 0.00 39 1009.4
20260509231552 65 86 0.0 7.0 0.00 0.00 0.00 39 1009.6
20260509230052 65 119 0.0 5.0 0.00 0.00 0.00 39 1009.5
20260509224547 66 298 1.0 9.0 0.00 0.00 0.00 39 1009.4
20260509223051 66 94 0.0 4.0 0.00 0.00 0.00 39 1009.4
20260509221548 66 92 1.0 10.0 0.00 0.00 0.00 39 1009.5
20260509220048 66 348 1.0 12.0 0.00 0.00 0.00 40 1009.3
20260509214546 66 82 0.0 3.0 0.00 0.00 0.00 39 1009.4
20260509213055 67 113 0.0 4.0 0.00 0.00 0.00 39 1009.4
20260509211543 67 122 1.0 5.0 0.00 0.00 0.00 38 1009.2
20260509210048 68 257 0.0 9.0 0.00 0.00 0.00 38 1009.1
20260509204542 68 15 1.0 8.0 0.00 0.00 0.00 38 1009.1
20260509203042 68 5 0.0 6.0 0.00 0.00 0.00 39 1009.0
20260509201542 68 96 2.0 13.0 0.00 0.00 0.00 39 1008.9
20260509200050 69 323 2.0 10.0 0.00 0.00 0.00 38 1008.7
20260509194553 69 267 2.0 11.0 0.00 0.00 0.00 38 1008.6
20260509193043 69 126 2.0 21.0 0.00 0.00 0.00 37 1008.6
20260509191540 70 111 3.0 11.0 0.00 0.00 0.00 37 1008.4
20260509190041 70 161 1.0 6.0 0.00 0.00 0.00 37 1008.4
20260509184538 70 75 2.0 13.0 0.00 0.00 0.00 36 1008.4
20260509183038 71 110 2.0 10.0 0.00 0.00 0.00 36 1008.3
20260509181538 71 110 2.0 11.0 0.00 0.00 0.00 36 1008.0
20260509180050 72 238 2.0 11.0 0.00 0.00 0.00 35 1007.8
20260509174539 72 13 2.0 11.0 0.00 0.00 0.00 34 1007.8
20260509173052 73 15 1.0 16.0 0.00 0.00 0.00 34 1007.4
20260509171540 73 95 3.0 14.0 0.00 0.00 0.00 33 1007.6
20260509170036 73 86 1.0 11.0 0.00 0.00 0.00 32 1007.3
20260509164535 73 82 1.0 10.0 0.00 0.00 0.00 32 1007.3
20260509163036 75 126 1.0 16.0 0.00 0.00 0.00 31 1007.3
20260509161541 75 300 0.0 8.0 0.00 0.00 0.00 31 1007.6
20260509160036 75 64 0.0 6.0 0.00 0.00 0.00 31 1007.6
20260509154538 75 205 0.0 4.0 0.00 0.00 0.00 32 1007.6
20260509153050 76 115 3.0 9.0 0.00 0.00 0.00 30 1007.6
20260509151530 78 126 4.0 16.0 0.00 0.00 0.00 29 1007.5
20260509150032 77 172 2.0 12.0 0.00 0.00 0.00 29 1007.6
20260509144529 77 127 4.0 16.0 0.00 0.00 0.00 29 1007.6
20260509143029 77 138 2.0 12.0 0.00 0.00 0.00 28 1007.7
20260509141535 78 101 2.0 12.0 0.00 0.00 0.00 28 1007.9
20260509140026 77 107 3.0 12.0 0.00 0.00 0.00 30 1007.9
20260509134524 77 129 3.0 11.0 0.00 0.00 0.00 29 1008.1
20260509133025 77 88 3.0 10.0 0.00 0.00 0.00 32 1008.2
20260509131523 78 128 0.0 10.0 0.00 0.00 0.00 31 1008.6
20260509130021 77 127 0.0 9.0 0.00 0.00 0.00 30 1008.8
20260509124518 77 11 1.0 5.0 0.00 0.00 0.00 29 1008.8
20260509123015 76 280 1.0 7.0 0.00 0.00 0.00 31 1009.1
20260509121513 76 151 1.0 5.0 0.00 0.00 0.00 33 1009.3
20260509120012 76 277 0.0 6.0 0.00 0.00 0.00 34 1009.4
20260509114508 75 209 1.0 4.0 0.00 0.00 0.00 36 1009.9
20260509113005 75 149 2.0 10.0 0.00 0.00 0.00 38 1010.1
20260509111501 74 176 0.0 5.0 0.00 0.00 0.00 39 1010.4
20260509110059 73 156 0.0 5.0 0.00 0.00 0.00 38 1010.6
20260509104600 72 191 1.0 8.0 0.00 0.00 0.00 42 1011.1
20260509103103 72 172 1.0 6.0 0.00 0.00 0.00 42 1011.2
20260509101548 71 169 2.0 6.0 0.00 0.00 0.00 46 1011.6
20260509100045 70 147 1.0 5.0 0.00 0.00 0.00 50 1011.8
20260509094552 69 236 1.0 3.0 0.00 0.00 0.00 52 1012.0
20260509093039 68 171 0.0 6.0 0.00 0.00 0.00 52 1012.1
20260509091540 68 187 1.0 5.0 0.00 0.00 0.00 55 1012.4
20260509090037 68 134 1.0 4.0 0.00 0.00 0.00 55 1012.6
20260509084525 65 166 0.0 3.0 0.00 0.00 0.00 58 1012.8
20260509083019 65 161 0.0 5.0 0.00 0.00 0.00 56 1013.0
20260509081515 65 105 0.0 3.0 0.00 0.00 0.00 61 1013.1
20260509080010 64 288 0.0 1.0 0.00 0.00 0.00 62 1013.5
20260509074506 63 131 0.0 2.0 0.00 0.00 0.00 65 1013.9
20260509073005 61 165 0.0 3.0 0.00 0.00 0.00 67 1014.0
20260509071602 61 128 0.0 3.0 0.00 0.00 0.00 69 1014.2
20260509070056 60 193 1.0 3.0 0.00 0.00 0.00 75 1014.1
20260509064549 59 193 0.0 1.0 0.00 0.00 0.00 76 1014.3
20260509063056 57 193 0.0 1.0 0.00 0.00 0.00 80 1014.5
20260509061642 56 193 0.0 1.0 0.00 0.00 0.00 84 1014.6
20260509060004 56 193 0.0 1.0 0.00 0.00 0.00 84 1014.7